Flight Information

DEPARTURE
RIVERSIDE, CA
Elevation:
818
Runways:
16/34 - 2850x50 - ASPH-F
H1 - 60x60 - ASPH-G
9/27 - 5401x100 - ASPH-G
Active PE Departure:
27
Current PE ATIS:
N
Altimeter:
29.75
Remarks:
ATIS:
128.8 951-688-7257
Ground:
121.7
Tower:
121
DESTINATION
,
Elevation:
TPA:
1000 (est.)


6748.4 NM74° True-14° Var60° HDG

Flight Plan:
(click to file on line)

1. Type
2. Aircraft Identification
3. Aircraft Type / Special Equipment
4. True Airspeed
kts
5. Departure Airport
(ICAO code)
6. Arriving Airport
(ICAO code)
7. Cruising Altitude
ft
8. Alternate Airport
(ICAO code)
9. Route of Flight
10. Remarks


00:00:00 Departure ATIS: Destination ATIS:

Clearance Limit:
Route:
Altitude: Expect in minutes
Frequency:
Transponder: (7500 Hijack / 7600 Lost Comms / 7700 Emergency)


KRAL 190153Z 01012G19KT 340V040 10SM CLR 23/M06 A2975 RMK AO2 SLP063 T02281056 $
Time: 2021-01-19T01:53:00Z
1611021780
Winds: 10 @ 12 kts
Gusting:19 kts
Visibility: 10.0 sm
Clouds (AGL): CLR
Temperature: 22.8 C
Dew Point: -5.6 C
Pressure: 29.749016 in Hgbr


Notes:

Data extracted from FAA Digital Chart Supplement. Effective: 0901Z Thursday, Dec 31, 2020 to 0901Z Thursday, Jan 28, 2021
Current ATIS data is provided courtisy of PilotEdge.